This is the latest recevied weather packets stored in our database for station/object KD7MPG-3. If no packets are shown the sender has not sent any weather packets the latest 10 day(s).
| Time | Temp. | Humidity | Pressure | Rain* | Wind** | Luminosity | Snow |
|---|---|---|---|---|---|---|---|
| 1777591614 | 27.22° C | 42% | 1023.3 hPa | 0 mm | - | - | - |
| 1777591308 | 27.22° C | 43% | 1023.4 hPa | 0 mm | - | - | - |
| 1777591014 | 27.22° C | 44% | 1023.4 hPa | 0 mm | - | - | - |
| 1777590709 | 27.22° C | 45% | 1023.5 hPa | 0 mm | - | - | - |
| 1777590409 | 27.22° C | 44% | 1023.5 hPa | 0 mm | - | - | - |
| 1777590109 | 26.67° C | 44% | 1023.8 hPa | 0 mm | - | - | - |
| 1777589810 | 26.67° C | 44% | 1023.8 hPa | 0 mm | - | - | - |
| 1777589504 | 26.67° C | 44% | 1024 hPa | 0 mm | - | - | - |
| 1777589204 | 26.67° C | 45% | 1024.1 hPa | 0 mm | - | - | - |
| 1777588905 | 26.67° C | 46% | 1024.1 hPa | 0 mm | - | - | - |
| 1777588604 | 26.11° C | 43% | 1024.1 hPa | 0 mm | - | - | - |
| 1777588305 | 26.11° C | 45% | 1024.2 hPa | 0 mm | - | - | - |
| 1777588004 | 26.11° C | 47% | 1024.2 hPa | 0 mm | - | - | - |
| 1777587702 | 26.11° C | 47% | 1024.2 hPa | 0 mm | - | - | - |
| 1777587402 | 26.11° C | 46% | 1024.4 hPa | 0 mm | - | - | - |
| 1777587103 | 26.11° C | 45% | 1024.3 hPa | 0 mm | - | - | - |
| 1777586802 | 26.11° C | 47% | 1024.4 hPa | 0 mm | - | - | - |
| 1777586503 | 25.56° C | 49% | 1024.4 hPa | 0 mm | - | - | - |
| 1777586202 | 25.56° C | 49% | 1024.6 hPa | 0 mm | - | - | - |
| 1777585898 | 25.56° C | 47% | 1024.6 hPa | 0 mm | - | - | - |
| 1777585597 | 25.56° C | 49% | 1024.8 hPa | 0 mm | - | - | - |
| 1777585296 | 25.56° C | 49% | 1024.7 hPa | 0 mm | - | - | - |
| 1777584995 | 25° C | 52% | 1024.7 hPa | 0 mm | - | - | - |
| 1777584694 | 25° C | 49% | 1024.6 hPa | 0 mm | - | - | - |
| 1777584390 | 24.44° C | 51% | 1024.8 hPa | 0 mm | - | - | - |
* Rain latest hour (hover to see other rain measurements)
** Current wind speed in m/s (hover to see current wind gust speed)